EHI
13 13 16 18 14 10 9 8 7 8 9 12 14 12 9 9 9 12 23 33 30 19 9 5 5 4 4 2 0 0 0 0 0 1 0 0 0 0 0 0 0 0 0
11 12 14 16 14 10 9 9 8 9 11 13 13 10 8 8 10 14 21 29 28 19 11 8 6 7 7 4 1 0 0 1 2 2 1 1 1 0 0 0 0 0 0
7 7 8 10 9 8 8 8 6 7 9 10 9 7 7 8 11 14 19 24 25 20 16 11 8 9 9 5 1 0 2 4 4 4 4 3 2 1 0 0 0 0 0
2 3 4 4 4 4 5 5 4 4 5 5 5 5 7 9 10 11 12 15 18 18 17 15 11 8 8 6 4 3 5 7 6 5 6 5 4 1 0 0 0 0 0
1 2 3 3 2 2 2 2 3 3 3 4 3 3 5 7 7 6 4 5 8 11 14 16 12 7 5 7 9 11 13 12 9 6 6 6 4 2 1 0 0 0 0
2 2 2 2 1 1 1 1 1 1 1 2 1 1 2 3 4 4 1 0 1 3 7 12 14 12 8 8 11 16 18 18 14 10 7 6 4 2 1 1 0 0 0
1 1 1 1 0 0 0 0 0 0 0 0 0 0 1 1 2 2 1 0 0 1 2 6 12 16 15 11 10 13 17 21 22 17 11 7 4 1 0 0 0 0 0
0 0 0 0 0 0 0 0 0 0 0 0 0 0 0 0 0 0 0 0 0 0 1 2 6 11 15 15 11 9 13 22 28 25 17 10 4 1 0 0 0 0 0
0 0 0 0 0 0 0 0 0 0 0 0 0 0 0 0 0 0 0 0 0 0 1 1 2 4 9 14 12 7 9 18 26 27 20 12 4 0 0 0 0 0 0
0 0 0 0 0 0 0 0 0 0 0 0 0 0 0 0 0 0 0 0 0 0 0 0 0 1 4 9 10 6 4 9 16 20 19 13 5 0 0 0 0 0 0
0 0 0 0 0 0 0 0 0 0 0 0 0 0 0 0 0 0 0 0 0 0 0 0 0 1 3 5 6 4 1 2 6 10 12 10 5 2 0 0 0 0 0
0 0 0 0 0 0 0 0 0 0 0 0 0 0 0 0 0 0 0 0 0 0 0 0 0 1 2 3 4 2 0 0 1 3 4 5 4 2 1 0 1 1 1
0 0 0 0 0 0 0 0 0 0 0 0 0 0 0 0 0 0 0 0 0 0 0 0 0 1 1 2 2 1 0 0 0 0 0 1 1 1 1 1 1 1 0
0 0 0 0 0 0 0 0 0 0 0 0 0 0 0 0 0 0 0 0 0 0 0 0 0 0 0 1 1 0 0 0 0 0 0 0 0 0 0 1 1 0 0
0 0 0 0 0 0 0 0 0 0 0 0 0 0 0 0 0 0 0 0 0 0 0 0 0 0 0 0 0 0 0 0 0 0 0 0 0 0 0 0 0 0 0
0 0 0 0 0 0 0 0 0 0 0 0 0 0 0 0 0 0 0 0 0 0 0 0 0 0 0 0 0 0 0 0 0 0 0 0 0 0 0 0 0 0 0
0 0 0 0 0 0 0 0 0 0 0 0 0 0 0 0 0 0 0 0 0 0 0 0 0 0 0 0 0 0 0 0 0 0 0 0 0 0 0 0 0 0 0
0 0 0 0 0 0 0 0 0 0 0 0 0 0 0 0 0 0 0 0 0 0 0 0 0 0 0 0 0 0 0 0 0 0 0 0 0 0 0 0 0 0 0
0 0 0 0 0 0 0 0 0 0 0 0 0 0 0 0 0 0 0 0 0 0 0 0 0 0 0 0 0 0 0 0 0 0 0 0 0 0 0 0 0 0 0
0 0 0 0 0 0 0 0 0 0 0 0 0 0 0 0 0 0 0 0 0 0 0 0 0 0 0 0 0 0 0 0 0 0 0 0 0 0 0 0 0 0 0
0 0 0 0 0 0 0 0 0 0 0 0 0 0 0 0 0 0 0 0 0 0 0 0 0 0 0 0 0 0 1 1 0 0 0 0 1 1 1 1 0 0 0
0 0 0 0 0 0 0 0 0 0 0 0 0 0 0 0 0 0 0 0 0 0 0 0 0 0 0 0 0 0 1 1 0 0 0 1 2 3 3 2 0 0 0
0 0 0 0 0 0 0 0 0 0 0 0 0 0 0 0 0 0 0 0 0 0 0 0 0 0 0 0 0 0 1 1 0 0 0 1 2 4 3 2 0 0 0
0 0 0 0 0 0 0 0 0 0 0 0 0 0 0 0 0 0 0 0 0 0 0 0 0 0 0 0 0 0 0 0 0 0 0 0 1 1 2 1 0 0 0
0 0 0 0 0 0 0 0 0 0 0 0 0 0 0 0 0 0 0 0 0 0 0 0 0 0 0 0 0 0 0 0 0 0 0 0 0 0 0 0 0 0 0
0 0 0 0 0 0 0 0 0 0 0 0 0 0 0 0 0 0 0 0 0 0 0 0 0 0 0 0 0 0 0 0 0 0 0 0 0 0 0 0 0 0 0
Wind_Speed
2 2 2 2 3 3 4 4 5 6 7 8 8 9 10 11 11 10 6 11 14 15 16 17 17 17 18 18 18 18 18 17 15 14 14 14 14 15 14 14 13 12 11
2 2 2 2 3 3 3 4 5 6 6 6 8 9 10 11 11 11 10 9 14 16 17 18 18 18 19 19 20 19 19 19 17 16 15 15 15 15 15 15 14 13 12
2 2 2 2 2 3 3 4 5 5 6 6 8 9 9 10 11 11 11 9 10 16 18 18 18 18 18 20 20 21 21 20 19 18 17 16 16 16 15 15 15 14 13
2 3 3 3 3 4 4 4 5 5 5 6 6 7 8 8 11 11 11 11 10 10 15 20 19 18 19 21 22 21 21 21 20 20 19 18 17 17 16 16 15 15 14
3 4 3 3 5 5 4 5 4 5 6 6 7 7 8 8 9 11 12 13 12 12 10 13 19 20 21 22 22 22 22 22 22 21 21 21 20 19 18 17 17 16 15
3 5 5 3 6 6 5 4 5 5 6 6 8 8 8 9 9 10 11 11 11 13 14 13 11 15 22 21 21 22 22 23 23 23 23 23 22 20 19 19 18 17 17
4 4 6 4 5 6 6 7 6 7 7 5 8 8 8 10 9 8 8 9 10 11 11 12 10 10 11 20 21 20 22 24 24 24 23 23 23 22 21 20 19 19 18
4 4 4 6 5 5 6 6 6 7 7 5 7 8 8 6 5 6 5 6 7 7 9 11 11 11 11 9 13 21 22 24 25 24 24 23 23 22 22 22 21 20 20
4 5 5 6 6 8 6 6 7 8 7 7 6 6 7 6 6 4 4 4 4 5 7 7 10 11 12 10 11 17 23 23 24 25 24 23 22 22 22 22 22 22 21
5 5 6 6 6 7 6 8 6 6 7 8 6 5 7 7 7 7 5 4 4 5 6 6 7 8 10 10 10 13 19 22 23 25 25 23 22 21 22 23 24 24 23
5 6 6 6 6 7 6 7 7 8 7 8 8 7 6 6 8 8 9 7 6 5 5 6 6 7 8 9 8 14 16 19 21 22 23 24 23 23 23 25 26 25 25
5 5 6 6 7 7 6 7 7 8 8 8 8 8 8 8 8 8 9 9 8 7 6 6 7 7 7 8 10 11 13 16 18 20 21 23 24 24 25 25 26 26 26
6 5 6 6 7 6 7 8 7 8 8 8 9 9 8 8 8 9 9 9 9 8 7 6 5 5 5 5 6 8 12 13 15 17 19 21 22 23 25 25 26 25 25
7 7 7 8 8 8 8 7 8 8 7 8 10 10 9 9 9 8 9 9 10 9 7 7 4 4 3 3 3 6 8 12 14 16 18 20 21 22 23 24 24 24 24
7 8 8 8 8 8 8 8 8 8 8 9 10 10 10 9 9 9 9 9 10 10 9 6 5 3 3 3 3 6 7 9 13 15 17 18 20 21 21 22 22 22 21
8 9 9 9 9 9 9 9 10 9 9 10 9 10 10 10 8 8 9 9 9 10 11 8 6 5 5 6 5 7 7 7 11 13 15 17 18 20 20 21 21 21 20
8 9 10 10 10 10 10 10 11 10 11 11 11 11 11 11 10 9 9 9 9 10 11 10 8 6 7 8 7 6 6 6 6 10 13 15 16 17 19 20 20 20 20
9 10 10 10 11 11 10 11 12 11 11 12 12 12 12 10 11 11 10 11 10 9 11 12 9 8 8 7 7 7 5 5 5 7 11 13 14 16 17 19 19 19 19
10 10 10 11 11 11 11 11 11 12 12 12 12 12 12 12 12 11 11 11 10 10 10 11 10 8 7 6 6 6 6 4 5 5 8 11 12 14 16 17 18 18 18
10 10 11 11 11 12 12 12 11 12 12 12 12 12 13 13 13 12 11 12 11 11 10 11 10 9 8 7 6 6 5 4 4 4 4 5 8 12 13 15 17 17 18
11 11 11 11 12 11 10 10 11 12 12 12 12 13 13 12 12 11 10 11 11 10 10 10 10 9 8 7 6 5 5 4 3 3 4 4 6 7 8 11 14 16 16
10 11 11 12 12 10 5 5 10 13 13 13 13 13 13 13 14 15 16 16 15 13 12 11 10 10 9 8 7 6 5 5 4 4 4 3 4 5 5 6 10 14 15
11 11 11 11 12 11 8 9 10 12 14 14 13 12 12 11 11 13 15 19 19 20 18 15 14 12 10 9 8 9 7 6 4 3 3 2 2 3 2 4 9 12 13
10 10 11 11 12 11 7 9 10 13 14 14 14 13 13 13 12 11 13 13 14 15 17 16 15 14 13 10 9 9 8 6 4 3 4 3 2 2 3 4 6 9 11
10 11 11 11 12 11 9 9 10 11 11 13 13 13 12 13 9 8 12 14 14 13 13 14 13 12 10 9 7 8 8 6 5 4 3 3 4 3 3 3 4 7 9
10 11 11 11 12 12 8 6 8 10 11 11 10 10 11 12 8 6 11 13 14 13 12 12 13 15 15 14 13 12 10 8 6 4 4 5 5 5 4 2 3 4 6
Wind_Direction
288 290 289 286 278 271 264 272 277 275 269 257 252 248 248 246 246 245 239 198 205 215 222 225 224 221 217 214 211 210 207 206 203 199 198 197 193 191 190 190 187 184 182
335 302 275 293 293 288 300 290 284 280 276 271 263 255 251 249 245 242 245 227 213 217 222 226 227 226 222 218 214 212 211 209 205 202 201 201 198 195 195 195 193 190 187
3 319 307 283 306 297 283 275 281 275 269 268 265 263 258 253 252 246 244 242 229 218 218 223 227 227 225 223 220 215 212 210 207 204 203 203 201 199 198 197 196 194 191
329 304 302 310 321 292 288 287 277 287 285 281 276 272 267 260 255 250 245 240 239 235 218 217 222 226 226 225 224 221 215 210 208 206 204 204 204 202 201 199 198 196 195
318 299 307 326 293 286 288 291 301 297 293 288 281 267 263 259 256 251 248 246 241 237 236 215 214 221 227 228 225 222 218 213 208 207 207 206 207 206 203 202 200 198 197
323 310 291 308 298 289 288 293 299 285 287 287 287 284 272 264 256 253 250 246 242 238 236 235 223 220 223 227 227 224 220 214 211 210 210 208 208 208 206 203 202 201 200
331 309 308 311 293 292 297 292 288 280 272 288 285 281 269 253 248 250 248 251 245 241 240 237 236 235 222 217 223 224 221 216 213 211 211 210 208 208 207 205 203 202 202
310 299 318 300 302 297 276 279 275 287 290 281 290 295 288 267 228 242 247 243 250 248 243 238 236 234 240 230 216 217 220 217 213 211 210 209 209 208 208 206 204 203 203
301 311 305 304 309 291 290 291 280 270 283 285 278 292 297 303 318 257 248 260 264 261 257 253 244 239 238 236 232 215 215 214 214 213 211 209 209 208 208 209 207 206 205
294 297 297 295 295 295 295 280 282 284 273 276 269 258 274 302 296 295 270 255 264 268 268 265 257 246 240 238 234 231 216 210 211 213 212 210 209 209 209 210 210 209 208
283 289 293 295 291 286 295 299 297 282 276 273 280 276 268 261 256 271 284 289 284 278 273 270 266 256 245 240 237 232 217 210 210 212 211 210 210 211 211 212 213 213 212
286 287 287 287 282 287 289 281 282 272 273 280 280 278 274 273 272 274 278 282 285 286 286 278 265 255 247 241 238 236 221 212 210 211 210 210 210 211 213 215 215 215 214
294 298 299 290 285 283 279 279 273 277 273 269 267 270 272 273 276 277 279 282 284 283 278 267 260 258 254 248 243 238 230 217 213 211 210 209 209 211 212 213 216 216 215
301 310 293 282 279 277 275 273 274 267 264 265 265 269 272 269 270 269 272 281 281 279 272 272 279 274 281 277 269 250 241 221 216 213 212 211 211 211 210 210 212 214 214
291 291 288 283 278 274 272 272 269 272 270 265 264 256 255 264 262 265 266 267 275 280 277 275 267 263 290 289 279 261 253 228 219 218 215 213 211 209 208 207 207 208 209
290 288 284 282 278 274 267 264 268 261 262 262 263 270 270 268 267 263 263 262 261 268 276 277 275 276 293 294 281 271 259 242 226 221 217 214 212 209 206 206 206 205 205
289 284 284 283 280 276 271 265 266 271 265 264 262 258 256 262 268 268 261 258 258 259 267 272 269 272 275 279 281 273 260 249 227 214 215 214 211 208 205 204 203 203 203
283 283 283 281 278 276 272 268 266 267 266 265 264 263 260 257 253 258 263 263 261 263 266 272 275 270 265 268 273 269 262 252 241 204 210 212 208 207 205 203 201 201 201
284 284 283 280 279 279 275 270 268 268 267 267 265 263 261 259 257 256 256 260 260 255 255 263 266 266 263 260 264 259 254 248 243 207 201 208 205 203 202 201 200 199 198
285 285 284 283 281 279 276 273 270 269 268 267 265 263 261 258 255 255 255 254 258 262 259 258 262 261 253 248 247 249 241 230 231 215 198 193 192 195 196 196 196 196 196
285 287 287 285 282 278 273 279 281 277 273 270 266 262 259 256 262 263 265 261 256 252 255 254 255 256 252 245 243 241 241 227 225 218 196 185 180 184 188 192 193 191 189
289 289 286 286 285 283 304 301 283 283 280 274 269 265 262 249 241 237 247 259 267 265 263 264 260 257 259 257 251 249 241 224 222 203 193 189 178 170 174 180 178 179 181
291 289 287 287 285 283 273 261 259 274 275 272 270 267 264 261 246 245 235 232 241 246 252 263 268 268 266 258 257 250 240 238 235 187 181 181 160 148 127 122 151 166 172
291 289 288 287 286 284 268 257 256 265 268 266 265 264 262 264 260 259 260 251 244 237 232 235 247 257 263 270 263 257 258 245 237 211 184 169 149 119 101 100 125 151 160
292 289 287 287 286 284 267 249 253 276 269 267 265 264 263 263 257 246 259 262 259 253 241 236 244 252 270 281 278 265 245 229 223 205 181 158 138 115 97 89 98 126 142
290 290 290 291 290 288 282 250 246 274 275 276 272 267 254 251 263 241 254 257 257 254 255 239 227 233 241 243 234 242 245 234 225 201 176 158 147 139 121 87 93 121 124